#timestamp,LO_Frequency,Hit 
1505322015.0,286047006.3,N
1505322015.9,286047006.3,N
1505322035.7,286047008.9,N
1505322055.6,286047009.0,N
1505322075.4,286047010.0,N
1505322095.2,286047015.1,N
1505322115.1,286047011.2,N
1505322116.0,286047011.2,N
1505322135.8,286047012.8,N
1505322155.6,286047015.6,N
1505322175.5,286047016.7,N
1505322195.3,286047015.0,N
1505322215.1,286047013.1,N
1505322235.9,286047015.0,N
1505322255.7,286047016.4,N
1505322275.5,286047016.6,N
1505322295.4,286047018.8,N
1505322315.2,286047016.7,N
1505322335.0,286047012.6,N
1505322335.9,286047012.6,N
1505322355.8,286047013.6,N
1505322375.6,286047017.1,N
1505322395.4,286047014.4,N
1505322415.2,286047019.3,N
1505322435.1,286047021.4,N
1505322436.0,286047021.4,N
1505322455.8,286047026.1,P
1505322475.7,286047015.5,N
1505322495.5,286047015.4,N
1505322515.3,286047011.4,N
1505322535.1,286047008.2,N
1505322555.9,286047008.6,N
1505322575.7,286047007.4,N
1505322595.5,286047002.9,N
1505322615.4,286047003.7,N
1505322635.2,286047005.5,N
1505322655.0,286047001.3,N
1505322655.9,286047001.3,N
1505322675.8,286047003.4,N
1505322695.6,286047004.7,N
1505322715.4,286047004.9,N
1505322735.3,286047010.7,N
1505322755.1,286047006.1,N
1505322756.0,286047006.1,N
1505322775.8,286047008.7,N
1505322795.7,286047014.0,N
1505322815.5,286047009.5,N
1505322835.3,286047006.4,N
1505322855.2,286047004.8,N
1505322875.9,286047001.0,N
1505322895.7,286046996.6,N
1505322915.6,286046999.5,N
1505322935.4,286046997.5,N
1505322955.2,286046998.0,N
1505322975.0,286046996.8,N
1505322976.0,286046996.8,N
1505322995.8,286046993.4,N
1505323015.6,286046994.2,N
1505323035.4,286046996.3,N
1505323055.3,286046993.4,N
1505323075.1,286046995.9,N
1505323095.8,286046995.2,N
1505323115.7,286046992.5,N
1505323135.5,286046993.2,N
1505323155.3,286046993.0,N
1505323175.2,286046992.8,N
1505323195.9,286046991.3,N
1505323215.7,286046991.5,N
1505323235.6,286046985.6,N
1505323255.4,286046986.2,N
1505323275.2,286046984.4,N
1505323295.1,286046986.2,N
1505323296.0,286046986.2,N
1505323315.8,286046985.7,N
1505323335.6,286046988.4,N
1505323355.5,286046988.4,N
1505323375.3,286046985.4,N
1505323395.1,286046985.9,N
1505323415.9,286046986.2,N
1505323435.7,286046985.4,P
1505323455.5,286046995.3,N
1505323475.4,286046999.5,N
1505323495.2,286046997.8,N
1505323515.0,286046995.4,N
1505323515.9,286046995.4,N
1505323535.8,286046995.8,N
1505323555.6,286046994.3,N
1505323575.4,286046995.5,N
1505323595.3,286046994.9,N
1505323615.1,286046997.2,N
1505323616.0,286046997.2,N
1505323635.8,286046995.0,N
1505323655.7,286046996.2,N
1505323675.5,286046993.2,N
1505323695.3,286046991.1,N
1505323715.2,286046990.8,P
1505323735.9,286046999.2,N
1505323755.7,286046999.4,N
1505323775.6,286047002.0,N
1505323795.4,286047002.6,N
1505323815.2,286047006.0,N
1505323835.1,286047001.8,N
1505323836.0,286047001.8,N
1505323855.8,286047001.2,N
1505323875.6,286047003.6,N
1505323895.5,286047004.9,N
1505323915.3,286047013.0,P
1505323935.1,286047018.7,P
1505323955.9,286047018.0,N
1505323975.7,286047018.1,N
1505323995.5,286047018.7,N
1505324015.4,286047023.3,P
1505324035.2,286047008.7,N
1505324055.0,286047010.7,N
1505324055.9,286047010.7,N
1505324075.8,286047010.2,N
1505324095.6,286047007.8,N
1505324115.4,286047006.5,N
1505324135.3,286047009.1,N
1505324155.1,286047004.6,N
1505324156.0,286047004.6,N
1505324175.8,286047005.5,N
1505324195.7,286047006.0,N
1505324215.5,286047006.5,N
1505324235.3,286047008.5,N
1505324255.1,286047012.7,N
1505324275.9,286047015.8,P
1505324295.7,286047004.8,N
1505324315.6,286047006.9,N
1505324335.4,286047007.6,N
1505324355.2,286047004.7,N
1505324375.0,286047005.7,N
1505324375.9,286047005.7,N
1505324395.8,286047006.7,N
1505324415.6,286047006.5,N
1505324435.5,286047009.5,P
1505324455.3,286047003.8,P
1505324475.1,286047000.9,N
1505324495.8,286047000.0,N
1505324515.7,286047001.6,N
1505324535.5,286047004.4,N
1505324555.3,286047002.7,N
1505324575.2,286046999.0,N
1505324595.0,286047000.4,N
1505324595.9,286047000.4,N
1505324615.7,286046999.6,N
1505324635.6,286046997.1,N
1505324655.4,286046997.6,N
1505324675.2,286046994.2,N
1505324695.1,286046992.3,N
1505324696.0,286046992.3,N
1505324715.8,286046995.0,N
1505324735.6,286046999.1,N
1505324755.5,286047000.3,N
1505324775.3,286047004.0,N
1505324795.1,286047002.7,N
1505324815.9,286046998.5,N
1505324835.7,286046996.2,N
1505324855.5,286046996.3,N
1505324875.4,286046997.9,N
1505324895.2,286046995.8,N
1505324915.0,286046996.3,N
1505324915.9,286046996.3,N
1505324935.7,286046992.2,N
1505324955.6,286046992.3,N
1505324975.4,286046991.4,N
1505324995.2,286046991.6,N
1505325015.1,286046989.9,N
1505325016.0,286046989.9,N
1505325035.8,286046991.3,N
1505325055.6,286046985.3,P
1505325075.5,286046991.8,N
1505325095.3,286046992.4,N
1505325115.1,286046995.9,N
1505325135.9,286046993.3,N
1505325155.7,286046993.1,N
1505325175.5,286046989.7,P
1505325195.4,286046997.9,N
1505325215.2,286046996.3,N
1505325235.0,286046996.0,N
1505325235.9,286046996.0,N
1505325255.8,286046997.7,N
1505325275.6,286046997.1,N
1505325295.4,286046998.4,N
1505325315.3,286046998.7,N
1505325335.1,286046998.3,N
1505325355.8,286046995.6,N
1505325375.7,286046992.4,P
1505325395.5,286046999.6,N
1505325415.3,286046997.3,N
1505325435.2,286046997.2,N
1505325455.9,286046998.3,N
1505325475.7,286046993.5,N
1505325495.6,286046991.8,P
1505325515.4,286046997.3,N
1505325535.2,286046997.6,N
1505325555.1,286046996.5,N
1505325556.0,286046996.5,N
1505325575.8,286047000.4,N
1505325595.6,286047001.7,N
